Home > Weather > Miami > Past weeks

Flag for USA Past Weather in Miami, Florida, USA — Yesterday and Last 2 Weeks

Now
85 °F

Broken clouds.


Feels Like: 98 °F
Forecast: 80 / 89 °F
Wind: 5 mph from North

Location: Miami International Airport

Current Time: Aug 25, 2016 at 11:13:13 AM

Latest Report: Aug 25, 2016 at 9:53 AM


Visibility: 10 mi

Pressure: 29.98 "Hg

Humidity: 83%

Dew Point: 79 °F

Location of MiamiLocation

Past Weather in Miami — Graph

°F

Miami Temperature Yesterday

Maximum temperature yesterday: 90 °F (at 2:53 PM)
Minimum temperature yesterday: 81 °F (at 7:53 PM)
Average temperature yesterday: 85 °F

High & Low Weather Summary for the Past Weeks

 TemperatureHumidityPressure
High94 °F (Aug 21, 12:53 PM)96% (Aug 12, 3:53 AM)30.16 "Hg (Aug 12, 3:53 AM)
Low76 °F (Aug 13, 9:53 PM)49% (Aug 21, 12:53 PM)29.93 "Hg (Aug 20, 4:53 PM)
Average85 °F76%30.05 "Hg
* Reported Aug 10 9:53 AM — Aug 25 9:53 AM, Miami, Weather by CustomWeather, © 2016

Note: Actual official high and low records may vary slightly from our data, if they occured in-between our weather recording intervals... More about our weather records

Advertising

Miami Weather History for the Previous 24 Hours

Scroll right to see more
 ConditionsComfort  
Time TempWeatherWind HumidityBarometerVisibility
9:53 AM
Thu, Aug 25
85 °FBroken clouds.5 mph83%29.98 "Hg10 mi
8:53 AM83 °FLight rain. Broken clouds.5 mph85%29.97 "Hg7 mi
7:53 AM82 °FPartly cloudy.No wind94%29.98 "Hg10 mi
6:53 AM82 °FPartly cloudy.No wind85%29.96 "Hg10 mi
5:53 AM81 °FPartly cloudy.No wind88%29.96 "Hg10 mi
4:53 AM84 °FPartly cloudy.5 mph83%29.96 "Hg10 mi
3:53 AM84 °FPartly cloudy.9 mph80%29.97 "Hg10 mi
2:53 AM84 °FPartly cloudy.9 mph83%29.97 "Hg10 mi
1:53 AM84 °FPartly cloudy.8 mph83%29.98 "Hg10 mi
12:53 AM83 °FPassing clouds.10 mph85%30.00 "Hg10 mi
11:53 PM
Wed, Aug 24
82 °FPartly cloudy.3 mph91%30.00 "Hg10 mi
10:53 PM82 °FPassing clouds.3 mph88%30.00 "Hg10 mi
9:53 PM81 °FPassing clouds.3 mph88%30.02 "Hg10 mi
8:53 PM82 °FPartly cloudy.6 mph82%30.02 "Hg10 mi
7:53 PM81 °FMore clouds than sun.7 mph85%30.01 "Hg10 mi
6:53 PM82 °FMore clouds than sun.9 mph82%30.02 "Hg10 mi
5:53 PM87 °FBroken clouds.7 mph69%30.01 "Hg10 mi
4:53 PM88 °FBroken clouds.9 mph70%30.00 "Hg10 mi
3:53 PM88 °FBroken clouds.9 mph73%30.00 "Hg10 mi
2:53 PM90 °FBroken clouds.10 mph68%30.01 "Hg10 mi
1:53 PM88 °FBroken clouds.8 mph75%30.03 "Hg10 mi
12:53 PM87 °FBroken clouds.14 mph75%30.05 "Hg10 mi
11:53 AM85 °FBroken clouds.8 mph80%30.06 "Hg10 mi
Weather by CustomWeather, © 2016

See weather overviewHow to use our weather pages